Time,TemperatureF,DewpointF,PressureIn,WindDirection,WindDirectionDegrees,WindSpeedMPH,WindSpeedGustMPH,Humidity,HourlyPrecipIn,Conditions,Clouds,dailyrainin,SoftwareType,DateUTC
2013-03-15 00:00:00,46.1,17.9,30.34,West,263,4.0,8.0,32,0.00,,---,0.00,VWS V14.01,2013-03-15 06:00:00,
2013-03-15 00:05:00,46.1,17.2,30.34,WSW,252,2.0,5.0,31,0.00,,---,0.00,VWS V14.01,2013-03-15 06:05:00,
2013-03-15 00:10:00,45.8,17.6,30.34,West,276,2.0,6.0,32,0.00,,---,0.00,VWS V14.01,2013-03-15 06:10:00,
2013-03-15 00:15:00,45.6,17.5,30.33,SW,235,2.0,9.0,32,0.00,,---,0.00,VWS V14.01,2013-03-15 06:15:00,
2013-03-15 00:20:00,45.3,17.9,30.33,WNW,283,5.0,9.0,33,0.00,,---,0.00,VWS V14.01,2013-03-15 06:20:00,
2013-03-15 00:25:00,45.3,17.9,30.33,WSW,253,5.0,9.0,33,0.00,,---,0.00,VWS V14.01,2013-03-15 06:25:00,
2013-03-15 00:30:00,45.3,17.2,30.33,SW,217,1.0,9.0,32,0.00,,---,0.00,VWS V14.01,2013-03-15 06:30:00,
2013-03-15 00:35:00,45.2,17.1,30.33,West,273,2.0,4.0,32,0.00,,---,0.00,VWS V14.01,2013-03-15 06:35:00,
2013-03-15 00:40:00,45.2,17.1,30.33,West,264,3.0,8.0,32,0.00,,---,0.00,VWS V14.01,2013-03-15 06:40:00,
2013-03-15 00:45:00,45.2,17.8,30.32,SW,229,1.0,8.0,33,0.00,,---,0.00,VWS V14.01,2013-03-15 06:45:00,
2013-03-15 00:50:00,45.0,17.6,30.32,SW,215,2.0,8.0,33,0.00,,---,0.00,VWS V14.01,2013-03-15 06:50:00,
2013-03-15 00:55:00,45.0,17.6,30.32,SW,231,5.0,8.0,33,0.00,,---,0.00,VWS V14.01,2013-03-15 06:55:00,
2013-03-15 01:00:00,45.2,17.8,30.31,WSW,245,2.0,14.0,33,0.00,,---,0.00,VWS V14.01,2013-03-15 07:00:00,
2013-03-15 01:05:00,45.3,17.9,30.31,WSW,250,4.0,5.0,33,0.00,,---,0.00,VWS V14.01,2013-03-15 07:05:00,
2013-03-15 01:10:00,45.3,17.2,30.31,SSE,168,6.0,8.0,32,0.00,,---,0.00,VWS V14.01,2013-03-15 07:10:00,
2013-03-15 01:15:00,45.2,17.8,30.31,SSE,159,4.0,8.0,33,0.00,,---,0.00,VWS V14.01,2013-03-15 07:15:00,
2013-03-15 01:20:00,44.9,17.6,30.31,SSE,158,2.0,8.0,33,0.00,,---,0.00,VWS V14.01,2013-03-15 07:20:00,
2013-03-15 01:25:00,44.6,18.0,30.31,ENE,62,2.0,8.0,34,0.00,,---,0.00,VWS V14.01,2013-03-15 07:25:00,
2013-03-15 01:30:00,44.4,18.5,30.31,West,270,0.0,8.0,35,0.00,,---,0.00,VWS V14.01,2013-03-15 07:30:00,
2013-03-15 01:35:00,44.1,18.2,30.31,WSW,255,4.0,5.0,35,0.00,,---,0.00,VWS V14.01,2013-03-15 07:35:00,
2013-03-15 01:40:00,44.2,17.6,30.31,WSW,240,2.0,7.0,34,0.00,,---,0.00,VWS V14.01,2013-03-15 07:40:00,
2013-03-15 01:45:00,44.2,17.6,30.31,West,260,2.0,7.0,34,0.00,,---,0.00,VWS V14.01,2013-03-15 07:45:00,
2013-03-15 01:50:00,44.1,17.5,30.30,WSW,244,2.0,7.0,34,0.00,,---,0.00,VWS V14.01,2013-03-15 07:50:00,
2013-03-15 01:55:00,44.1,17.5,30.30,SSW,200,4.0,10.0,34,0.00,,---,0.00,VWS V14.01,2013-03-15 07:55:00,
2013-03-15 02:00:00,44.4,18.5,30.30,WNW,294,0.0,10.0,35,0.00,,---,0.00,VWS V14.01,2013-03-15 08:00:00,
2013-03-15 02:05:00,44.4,18.5,30.30,WSW,255,3.0,6.0,35,0.00,,---,0.00,VWS V14.01,2013-03-15 08:05:00,
2013-03-15 02:10:00,44.7,18.8,30.29,WNW,283,4.0,9.0,35,0.00,,---,0.00,VWS V14.01,2013-03-15 08:10:00,
2013-03-15 02:15:00,44.6,18.7,30.29,SW,235,2.0,9.0,35,0.00,,---,0.00,VWS V14.01,2013-03-15 08:15:00,
2013-03-15 02:20:00,44.7,18.1,30.30,WSW,257,4.0,9.0,34,0.00,,---,0.00,VWS V14.01,2013-03-15 08:20:00,
2013-03-15 02:25:00,44.6,18.7,30.29,West,266,4.0,9.0,35,0.00,,---,0.00,VWS V14.01,2013-03-15 08:25:00,
2013-03-15 02:30:00,44.7,18.8,30.29,WSW,253,1.0,9.0,35,0.00,,---,0.00,VWS V14.01,2013-03-15 08:30:00,
2013-03-15 02:35:00,44.6,18.7,30.29,SW,229,5.0,5.0,35,0.00,,---,0.00,VWS V14.01,2013-03-15 08:35:00,
2013-03-15 02:40:00,44.6,18.7,30.28,WSW,254,2.0,7.0,35,0.00,,---,0.00,VWS V14.01,2013-03-15 08:40:00,
2013-03-15 02:45:00,44.6,18.7,30.28,SE,129,1.0,7.0,35,0.00,,---,0.00,VWS V14.01,2013-03-15 08:45:00,
2013-03-15 02:50:00,44.3,19.0,30.28,WSW,245,6.0,7.0,36,0.00,,---,0.00,VWS V14.01,2013-03-15 08:50:00,
2013-03-15 02:55:00,44.3,18.4,30.27,SW,214,1.0,7.0,35,0.00,,---,0.00,VWS V14.01,2013-03-15 08:55:00,
2013-03-15 03:00:00,44.1,18.2,30.27,WNW,294,1.0,7.0,35,0.00,,---,0.00,VWS V14.01,2013-03-15 09:00:00,
2013-03-15 03:05:00,44.2,16.2,30.27,West,276,4.0,4.0,32,0.00,,---,0.00,VWS V14.01,2013-03-15 09:05:00,
2013-03-15 03:10:00,44.2,16.2,30.27,West,276,4.0,4.0,32,0.00,,---,0.00,VWS V14.01,2013-03-15 09:10:00,
2013-03-15 03:15:00,44.2,16.2,30.26,West,276,4.0,4.0,32,0.00,,---,0.00,VWS V14.01,2013-03-15 09:15:00,
2013-03-15 03:20:00,44.2,16.2,30.25,West,276,4.0,4.0,32,0.00,,---,0.00,VWS V14.01,2013-03-15 09:20:00,
2013-03-15 03:25:00,44.2,16.2,30.25,West,276,4.0,4.0,32,0.00,,---,0.00,VWS V14.01,2013-03-15 09:25:00,
2013-03-15 03:30:00,44.2,16.2,30.25,West,276,4.0,4.0,32,0.00,,---,0.00,VWS V14.01,2013-03-15 09:30:00,
2013-03-15 03:35:00,44.2,16.2,30.25,West,276,4.0,4.0,32,0.00,,---,0.00,VWS V14.01,2013-03-15 09:35:00,
2013-03-15 03:40:00,44.2,16.2,30.24,West,276,4.0,4.0,32,0.00,,---,0.00,VWS V14.01,2013-03-15 09:40:00,
2013-03-15 03:45:00,44.2,16.2,30.24,West,276,4.0,4.0,32,0.00,,---,0.00,VWS V14.01,2013-03-15 09:45:00,
2013-03-15 03:50:00,44.2,16.2,30.24,West,276,4.0,4.0,32,0.00,,---,0.00,VWS V14.01,2013-03-15 09:50:00,
2013-03-15 03:55:00,44.2,16.2,30.24,West,276,4.0,4.0,32,0.00,,---,0.00,VWS V14.01,2013-03-15 09:55:00,
2013-03-15 04:00:00,44.2,16.2,30.24,West,276,4.0,4.0,32,0.00,,---,0.00,VWS V14.01,2013-03-15 10:00:00,
2013-03-15 04:05:00,44.2,16.2,30.23,West,276,4.0,4.0,32,0.00,,---,0.00,VWS V14.01,2013-03-15 10:05:00,
2013-03-15 04:10:00,44.2,16.2,30.23,West,276,4.0,4.0,32,0.00,,---,0.00,VWS V14.01,2013-03-15 10:10:00,
2013-03-15 04:15:00,44.2,16.2,30.22,West,276,4.0,4.0,32,0.00,,---,0.00,VWS V14.01,2013-03-15 10:15:00,
2013-03-15 04:20:00,44.2,16.2,30.23,West,276,4.0,4.0,32,0.00,,---,0.00,VWS V14.01,2013-03-15 10:20:00,
2013-03-15 04:25:00,44.2,16.2,30.23,West,276,4.0,4.0,32,0.00,,---,0.00,VWS V14.01,2013-03-15 10:25:00,
2013-03-15 04:30:00,44.2,16.2,30.22,West,276,4.0,4.0,32,0.00,,---,0.00,VWS V14.01,2013-03-15 10:30:00,
2013-03-15 04:35:00,44.2,16.2,30.22,West,276,4.0,4.0,32,0.00,,---,0.00,VWS V14.01,2013-03-15 10:35:00,
2013-03-15 04:40:00,44.2,16.2,30.22,West,276,4.0,4.0,32,0.00,,---,0.00,VWS V14.01,2013-03-15 10:40:00,
2013-03-15 04:45:00,44.2,16.2,30.22,West,276,4.0,4.0,32,0.00,,---,0.00,VWS V14.01,2013-03-15 10:45:00,
2013-03-15 04:50:00,44.2,16.2,30.22,West,276,4.0,4.0,32,0.00,,---,0.00,VWS V14.01,2013-03-15 10:50:00,
2013-03-15 04:55:00,44.2,16.2,30.22,West,276,4.0,4.0,32,0.00,,---,0.00,VWS V14.01,2013-03-15 10:55:00,
2013-03-15 05:00:00,44.2,16.2,30.22,West,276,4.0,4.0,32,0.00,,---,0.00,VWS V14.01,2013-03-15 11:00:00,
2013-03-15 05:05:00,44.2,16.2,30.22,West,276,4.0,4.0,32,0.00,,---,0.00,VWS V14.01,2013-03-15 11:05:00,
2013-03-15 05:10:00,44.2,16.2,30.23,West,276,4.0,4.0,32,0.00,,---,0.00,VWS V14.01,2013-03-15 11:10:00,
2013-03-15 05:15:00,44.2,16.2,30.23,West,276,4.0,4.0,32,0.00,,---,0.00,VWS V14.01,2013-03-15 11:15:00,
2013-03-15 05:20:00,44.2,16.2,30.23,West,276,4.0,4.0,32,0.00,,---,0.00,VWS V14.01,2013-03-15 11:20:00,
2013-03-15 05:25:00,44.2,16.2,30.23,West,276,4.0,4.0,32,0.00,,---,0.00,VWS V14.01,2013-03-15 11:25:00,
2013-03-15 05:30:00,44.2,16.2,30.23,West,276,4.0,4.0,32,0.00,,---,0.00,VWS V14.01,2013-03-15 11:30:00,
2013-03-15 05:35:00,44.2,16.2,30.23,West,276,4.0,4.0,32,0.00,,---,0.00,VWS V14.01,2013-03-15 11:35:00,
2013-03-15 05:40:00,44.2,16.2,30.23,West,276,4.0,4.0,32,0.00,,---,0.00,VWS V14.01,2013-03-15 11:40:00,
2013-03-15 05:45:00,44.2,16.2,30.22,West,276,4.0,4.0,32,0.00,,---,0.00,VWS V14.01,2013-03-15 11:45:00,
2013-03-15 05:50:00,44.2,16.2,30.22,West,276,4.0,4.0,32,0.00,,---,0.00,VWS V14.01,2013-03-15 11:50:00,
2013-03-15 05:55:00,44.2,16.2,30.22,West,276,4.0,4.0,32,0.00,,---,0.00,VWS V14.01,2013-03-15 11:55:00,
2013-03-15 06:00:00,44.2,16.2,30.22,West,276,4.0,4.0,32,0.00,,---,0.00,VWS V14.01,2013-03-15 12:00:00,
2013-03-15 06:05:00,44.2,16.2,30.21,West,276,4.0,4.0,32,0.00,,---,0.00,VWS V14.01,2013-03-15 12:05:00,
2013-03-15 06:10:00,44.2,16.2,30.21,West,276,4.0,4.0,32,0.00,,---,0.00,VWS V14.01,2013-03-15 12:10:00,
2013-03-15 06:15:00,44.2,16.2,30.21,West,276,4.0,4.0,32,0.00,,---,0.00,VWS V14.01,2013-03-15 12:15:00,
2013-03-15 06:20:00,44.2,16.2,30.21,West,276,4.0,4.0,32,0.00,,---,0.00,VWS V14.01,2013-03-15 12:20:00,
2013-03-15 06:25:00,44.2,16.2,30.20,West,276,4.0,4.0,32,0.00,,---,0.00,VWS V14.01,2013-03-15 12:25:00,
2013-03-15 06:30:00,44.2,16.2,30.21,West,276,4.0,4.0,32,0.00,,---,0.00,VWS V14.01,2013-03-15 12:30:00,
2013-03-15 06:35:00,44.2,16.2,30.20,West,276,4.0,4.0,32,0.00,,---,0.00,VWS V14.01,2013-03-15 12:35:00,
2013-03-15 06:40:00,44.2,16.2,30.20,West,276,4.0,4.0,32,0.00,,---,0.00,VWS V14.01,2013-03-15 12:40:00,
2013-03-15 06:45:00,44.2,16.2,30.21,West,276,4.0,4.0,32,0.00,,---,0.00,VWS V14.01,2013-03-15 12:45:00,
2013-03-15 06:50:00,44.2,16.2,30.21,West,276,4.0,4.0,32,0.00,,---,0.00,VWS V14.01,2013-03-15 12:50:00,
2013-03-15 06:55:00,44.2,16.2,30.21,West,276,4.0,4.0,32,0.00,,---,0.00,VWS V14.01,2013-03-15 12:55:00,
2013-03-15 07:00:00,44.2,16.2,30.20,West,276,4.0,4.0,32,0.00,,---,0.00,VWS V14.01,2013-03-15 13:00:00,
2013-03-15 07:05:00,44.2,16.2,30.20,West,276,4.0,4.0,32,0.00,,---,0.00,VWS V14.01,2013-03-15 13:05:00,
2013-03-15 07:10:00,44.2,16.2,30.20,West,276,4.0,4.0,32,0.00,,---,0.00,VWS V14.01,2013-03-15 13:10:00,
2013-03-15 07:15:00,44.2,16.2,30.22,West,276,4.0,4.0,32,0.00,,---,0.00,VWS V14.01,2013-03-15 13:15:00,
2013-03-15 07:20:00,44.2,16.2,30.21,West,276,4.0,4.0,32,0.00,,---,0.00,VWS V14.01,2013-03-15 13:20:00,
2013-03-15 07:25:00,44.2,16.2,30.21,West,276,4.0,4.0,32,0.00,,---,0.00,VWS V14.01,2013-03-15 13:25:00,
2013-03-15 07:30:00,44.2,16.2,30.20,West,276,4.0,4.0,32,0.00,,---,0.00,VWS V14.01,2013-03-15 13:30:00,
2013-03-15 07:35:00,44.2,16.2,30.21,West,276,4.0,4.0,32,0.00,,---,0.00,VWS V14.01,2013-03-15 13:35:00,
2013-03-15 07:40:00,44.2,16.2,30.20,West,276,4.0,4.0,32,0.00,,---,0.00,VWS V14.01,2013-03-15 13:40:00,
2013-03-15 07:45:00,44.2,16.2,30.21,West,276,4.0,4.0,32,0.00,,---,0.00,VWS V14.01,2013-03-15 13:45:00,
2013-03-15 07:50:00,44.2,16.2,30.20,West,276,4.0,4.0,32,0.00,,---,0.00,VWS V14.01,2013-03-15 13:50:00,
2013-03-15 07:55:00,44.2,16.2,30.19,West,276,4.0,4.0,32,0.00,,---,0.00,VWS V14.01,2013-03-15 13:55:00,
2013-03-15 08:00:00,44.2,16.2,30.20,West,276,4.0,4.0,32,0.00,,---,0.00,VWS V14.01,2013-03-15 14:00:00,
2013-03-15 08:05:00,44.2,16.2,30.20,West,276,4.0,4.0,32,0.00,,---,0.00,VWS V14.01,2013-03-15 14:05:00,
2013-03-15 08:10:00,44.2,16.2,30.19,West,276,4.0,4.0,32,0.00,,---,0.00,VWS V14.01,2013-03-15 14:10:00,
2013-03-15 08:15:00,44.2,16.2,30.19,West,276,4.0,4.0,32,0.00,,---,0.00,VWS V14.01,2013-03-15 14:15:00,
2013-03-15 08:20:00,44.2,16.2,30.19,West,276,4.0,4.0,32,0.00,,---,0.00,VWS V14.01,2013-03-15 14:20:00,
2013-03-15 08:25:00,44.2,16.2,30.18,West,276,4.0,4.0,32,0.00,,---,0.00,VWS V14.01,2013-03-15 14:25:00,
2013-03-15 08:30:00,48.0,16.5,30.19,SSW,205,2.0,10.0,28,0.00,,---,0.00,VWS V14.01,2013-03-15 14:30:00,
2013-03-15 08:35:00,48.3,17.5,30.18,ESE,120,2.0,3.0,29,0.00,,---,0.00,VWS V14.01,2013-03-15 14:35:00,
2013-03-15 08:40:00,48.5,16.9,30.18,West,270,3.0,7.0,28,0.00,,---,0.00,VWS V14.01,2013-03-15 14:40:00,
2013-03-15 08:45:00,49.1,17.4,30.19,SW,214,3.0,7.0,28,0.00,,---,0.00,VWS V14.01,2013-03-15 14:45:00,
2013-03-15 08:50:00,48.7,17.9,30.19,West,262,2.0,15.0,29,0.00,,---,0.00,VWS V14.01,2013-03-15 14:50:00,
2013-03-15 08:55:00,48.7,17.9,30.18,SE,144,0.0,15.0,29,0.00,,---,0.00,VWS V14.01,2013-03-15 14:55:00,
2013-03-15 09:00:00,48.5,17.7,30.20,SW,215,2.0,15.0,29,0.00,,---,0.00,VWS V14.01,2013-03-15 15:00:00,
2013-03-15 09:05:00,48.4,17.6,30.18,NNE,13,5.0,21.0,29,0.00,,---,0.00,VWS V14.01,2013-03-15 15:05:00,
2013-03-15 09:10:00,48.9,18.1,30.17,SSE,160,4.0,21.0,29,0.00,,---,0.00,VWS V14.01,2013-03-15 15:10:00,
2013-03-15 09:15:00,49.5,17.8,30.16,ESE,117,1.0,21.0,28,0.00,,---,0.00,VWS V14.01,2013-03-15 15:15:00,
2013-03-15 09:20:00,50.0,18.2,30.18,SE,137,3.0,21.0,28,0.00,,---,0.00,VWS V14.01,2013-03-15 15:20:00,
2013-03-15 09:25:00,50.9,19.0,30.18,SE,132,4.0,21.0,28,0.00,,---,0.00,VWS V14.01,2013-03-15 15:25:00,
2013-03-15 09:30:00,50.9,19.0,30.18,WNW,282,2.0,21.0,28,0.00,,---,0.00,VWS V14.01,2013-03-15 15:30:00,
2013-03-15 09:35:00,51.0,18.2,30.18,ESE,102,0.0,4.0,27,0.00,,---,0.00,VWS V14.01,2013-03-15 15:35:00,
2013-03-15 09:40:00,51.2,19.2,30.17,WNW,301,0.0,4.0,28,0.00,,---,0.00,VWS V14.01,2013-03-15 15:40:00,
2013-03-15 09:45:00,51.6,19.6,30.17,SE,136,3.0,8.0,28,0.00,,---,0.00,VWS V14.01,2013-03-15 15:45:00,
2013-03-15 09:50:00,51.8,19.8,30.18,WSW,243,2.0,8.0,28,0.00,,---,0.00,VWS V14.01,2013-03-15 15:50:00,
2013-03-15 09:55:00,51.8,18.0,30.17,SE,136,3.0,9.0,26,0.00,,---,0.00,VWS V14.01,2013-03-15 15:55:00,
2013-03-15 10:00:00,51.9,19.0,30.17,ESE,103,3.0,9.0,27,0.00,,---,0.00,VWS V14.01,2013-03-15 16:00:00,
2013-03-15 10:05:00,51.7,19.7,30.17,ESE,107,2.0,6.0,28,0.00,,---,0.00,VWS V14.01,2013-03-15 16:05:00,
2013-03-15 10:10:00,51.8,18.9,30.16,WSW,238,3.0,13.0,27,0.00,,---,0.00,VWS V14.01,2013-03-15 16:10:00,
2013-03-15 10:15:00,52.4,19.4,30.18,SE,124,12.0,13.0,27,0.00,,---,0.00,VWS V14.01,2013-03-15 16:15:00,
2013-03-15 10:20:00,52.6,18.7,30.16,SSW,200,5.0,13.0,26,0.00,,---,0.00,VWS V14.01,2013-03-15 16:20:00,
2013-03-15 10:25:00,52.1,18.3,30.16,WNW,287,5.0,13.0,26,0.00,,---,0.00,VWS V14.01,2013-03-15 16:25:00,
2013-03-15 10:30:00,51.5,18.6,30.13,NNW,347,1.0,13.0,27,0.00,,---,0.00,VWS V14.01,2013-03-15 16:30:00,
2013-03-15 10:35:00,51.4,18.6,30.14,West,267,4.0,8.0,27,0.00,,---,0.00,VWS V14.01,2013-03-15 16:35:00,
2013-03-15 10:40:00,51.9,19.8,30.14,WSW,253,3.0,11.0,28,0.00,,---,0.00,VWS V14.01,2013-03-15 16:40:00,
2013-03-15 10:45:00,52.7,19.7,30.14,SE,134,4.0,11.0,27,0.00,,---,0.00,VWS V14.01,2013-03-15 16:45:00,
2013-03-15 10:50:00,53.6,20.5,30.12,NNW,334,8.0,11.0,27,0.00,,---,0.00,VWS V14.01,2013-03-15 16:50:00,
2013-03-15 10:55:00,54.3,20.2,30.12,SE,136,3.0,11.0,26,0.00,,---,0.00,VWS V14.01,2013-03-15 16:55:00,
2013-03-15 11:00:00,54.9,19.8,30.12,East,99,2.0,11.0,25,0.00,,---,0.00,VWS V14.01,2013-03-15 17:00:00,
2013-03-15 11:05:00,55.0,19.8,30.13,SW,231,0.0,3.0,25,0.00,,---,0.00,VWS V14.01,2013-03-15 17:05:00,
2013-03-15 11:10:00,55.1,19.9,30.13,West,273,2.0,4.0,25,0.00,,---,0.00,VWS V14.01,2013-03-15 17:10:00,
2013-03-15 11:15:00,55.5,21.2,30.12,SE,131,0.0,4.0,26,0.00,,---,0.00,VWS V14.01,2013-03-15 17:15:00,
2013-03-15 11:20:00,56.1,20.8,30.12,West,261,3.0,7.0,25,0.00,,---,0.00,VWS V14.01,2013-03-15 17:20:00,
2013-03-15 11:25:00,56.1,20.8,30.13,ESE,117,2.0,9.0,25,0.00,,---,0.00,VWS V14.01,2013-03-15 17:25:00,
2013-03-15 11:30:00,56.1,19.8,30.12,WSW,237,4.0,9.0,24,0.00,,---,0.00,VWS V14.01,2013-03-15 17:30:00,
2013-03-15 11:35:00,55.8,20.5,30.13,SW,229,2.0,8.0,25,0.00,,---,0.00,VWS V14.01,2013-03-15 17:35:00,
2013-03-15 11:40:00,56.2,20.9,30.13,SSW,200,1.0,8.0,25,0.00,,---,0.00,VWS V14.01,2013-03-15 17:40:00,
2013-03-15 11:45:00,56.7,21.3,30.14,ESE,120,5.0,8.0,25,0.00,,---,0.00,VWS V14.01,2013-03-15 17:45:00,
2013-03-15 11:50:00,57.2,20.8,30.13,ESE,105,2.0,8.0,24,0.00,,---,0.00,VWS V14.01,2013-03-15 17:50:00,
2013-03-15 11:55:00,57.7,20.2,30.13,SSW,211,1.0,8.0,23,0.00,,---,0.00,VWS V14.01,2013-03-15 17:55:00,
2013-03-15 12:00:00,57.0,19.6,30.13,NW,326,2.0,8.0,23,0.00,,---,0.00,VWS V14.01,2013-03-15 18:00:00,
2013-03-15 12:05:00,56.6,21.2,30.14,NNE,18,6.0,8.0,25,0.00,,---,0.00,VWS V14.01,2013-03-15 18:05:00,
2013-03-15 12:10:00,56.2,19.9,30.14,North,360,5.0,8.0,24,0.00,,---,0.00,VWS V14.01,2013-03-15 18:10:00,
2013-03-15 12:15:00,55.9,21.5,30.15,SSW,211,3.0,9.0,26,0.00,,---,0.00,VWS V14.01,2013-03-15 18:15:00,
2013-03-15 12:20:00,56.4,20.1,30.14,SSE,148,1.0,9.0,24,0.00,,---,0.00,VWS V14.01,2013-03-15 18:20:00,
2013-03-15 12:25:00,56.8,21.4,30.15,ESE,102,4.0,11.0,25,0.00,,---,0.00,VWS V14.01,2013-03-15 18:25:00,
2013-03-15 12:30:00,56.6,20.2,30.15,WNW,283,3.0,12.0,24,0.00,,---,0.00,VWS V14.01,2013-03-15 18:30:00,
2013-03-15 12:35:00,56.4,21.0,30.14,ESE,105,3.0,7.0,25,0.00,,---,0.00,VWS V14.01,2013-03-15 18:35:00,
2013-03-15 12:40:00,56.3,20.0,30.15,NNE,27,4.0,12.0,24,0.00,,---,0.00,VWS V14.01,2013-03-15 18:40:00,
2013-03-15 12:45:00,56.1,19.8,30.14,WNW,298,3.0,12.0,24,0.00,,---,0.00,VWS V14.01,2013-03-15 18:45:00,
2013-03-15 12:50:00,56.0,20.7,30.13,South,180,3.0,12.0,25,0.00,,---,0.00,VWS V14.01,2013-03-15 18:50:00,
2013-03-15 12:55:00,56.1,20.8,30.14,SW,225,6.0,12.0,25,0.00,,---,0.00,VWS V14.01,2013-03-15 18:55:00,
2013-03-15 13:00:00,56.4,20.1,30.14,ESE,111,4.0,12.0,24,0.00,,---,0.00,VWS V14.01,2013-03-15 19:00:00,
2013-03-15 13:05:00,56.5,20.2,30.14,NNW,347,4.0,9.0,24,0.00,,---,0.00,VWS V14.01,2013-03-15 19:05:00,
2013-03-15 13:10:00,56.2,20.9,30.14,North,5,5.0,13.0,25,0.00,,---,0.00,VWS V14.01,2013-03-15 19:10:00,
2013-03-15 13:15:00,56.3,21.9,30.14,WSW,256,4.0,13.0,26,0.00,,---,0.00,VWS V14.01,2013-03-15 19:15:00,
2013-03-15 13:20:00,56.3,20.0,30.14,SW,225,1.0,15.0,24,0.00,,---,0.00,VWS V14.01,2013-03-15 19:20:00,
2013-03-15 13:25:00,56.4,21.0,30.13,WSW,248,5.0,15.0,25,0.00,,---,0.00,VWS V14.01,2013-03-15 19:25:00,
2013-03-15 13:30:00,56.4,20.1,30.15,NNW,340,5.0,15.0,24,0.00,,---,0.00,VWS V14.01,2013-03-15 19:30:00,
2013-03-15 13:35:00,56.2,22.7,30.13,WSW,238,2.0,4.0,27,0.00,,---,0.00,VWS V14.01,2013-03-15 19:35:00,
2013-03-15 13:40:00,56.4,20.1,30.13,NNW,340,5.0,13.0,24,0.00,,---,0.00,VWS V14.01,2013-03-15 19:40:00,
2013-03-15 13:45:00,56.9,20.5,30.13,NNW,347,8.0,13.0,24,0.00,,---,0.00,VWS V14.01,2013-03-15 19:45:00,
2013-03-15 13:50:00,56.7,20.3,30.13,WSW,249,3.0,13.0,24,0.00,,---,0.00,VWS V14.01,2013-03-15 19:50:00,
2013-03-15 13:55:00,56.8,22.3,30.13,SSW,210,3.0,13.0,26,0.00,,---,0.00,VWS V14.01,2013-03-15 19:55:00,
2013-03-15 14:00:00,57.1,20.7,30.12,SSW,193,7.0,14.0,24,0.00,,---,0.00,VWS V14.01,2013-03-15 20:00:00,
2013-03-15 14:05:00,56.7,20.3,30.12,South,186,5.0,9.0,24,0.00,,---,0.00,VWS V14.01,2013-03-15 20:05:00,
2013-03-15 14:10:00,56.3,20.0,30.12,WNW,284,1.0,9.0,24,0.00,,---,0.00,VWS V14.01,2013-03-15 20:10:00,
2013-03-15 14:15:00,56.5,21.1,30.12,WNW,282,3.0,9.0,25,0.00,,---,0.00,VWS V14.01,2013-03-15 20:15:00,
2013-03-15 14:20:00,56.6,20.2,30.12,SE,139,6.0,14.0,24,0.00,,---,0.00,VWS V14.01,2013-03-15 20:20:00,
2013-03-15 14:25:00,56.3,20.0,30.11,NNE,13,5.0,14.0,24,0.00,,---,0.00,VWS V14.01,2013-03-15 20:25:00,
2013-03-15 14:30:00,56.1,20.8,30.12,SE,143,10.0,14.0,25,0.00,,---,0.00,VWS V14.01,2013-03-15 20:30:00,
2013-03-15 14:35:00,56.4,21.0,30.10,WNW,301,4.0,6.0,25,0.00,,---,0.00,VWS V14.01,2013-03-15 20:35:00,
2013-03-15 14:40:00,57.1,20.7,30.11,West,270,1.0,13.0,24,0.00,,---,0.00,VWS V14.01,2013-03-15 20:40:00,
2013-03-15 14:45:00,57.8,21.3,30.11,WSW,239,2.0,13.0,24,0.00,,---,0.00,VWS V14.01,2013-03-15 20:45:00,
2013-03-15 14:50:00,57.6,21.1,30.11,NW,326,2.0,13.0,24,0.00,,---,0.00,VWS V14.01,2013-03-15 20:50:00,
2013-03-15 14:55:00,57.8,21.3,30.11,South,169,4.0,13.0,24,0.00,,---,0.00,VWS V14.01,2013-03-15 20:55:00,
2013-03-15 15:00:00,57.5,22.0,30.11,WSW,245,2.0,13.0,25,0.00,,---,0.00,VWS V14.01,2013-03-15 21:00:00,
2013-03-15 15:05:00,57.4,19.9,30.11,West,259,1.0,3.0,23,0.00,,---,0.00,VWS V14.01,2013-03-15 21:05:00,
2013-03-15 15:10:00,57.3,20.8,30.10,SW,229,3.0,10.0,24,0.00,,---,0.00,VWS V14.01,2013-03-15 21:10:00,
2013-03-15 15:15:00,57.5,21.0,30.10,SW,222,3.0,10.0,24,0.00,,---,0.00,VWS V14.01,2013-03-15 21:15:00,
2013-03-15 15:20:00,57.4,20.9,30.10,West,277,2.0,10.0,24,0.00,,---,0.00,VWS V14.01,2013-03-15 21:20:00,
2013-03-15 15:25:00,56.9,20.5,30.10,ENE,68,1.0,11.0,24,0.00,,---,0.00,VWS V14.01,2013-03-15 21:25:00,
2013-03-15 15:30:00,57.0,20.6,30.10,North,1,1.0,11.0,24,0.00,,---,0.00,VWS V14.01,2013-03-15 21:30:00,
2013-03-15 15:35:00,57.3,20.8,30.10,SSW,195,3.0,3.0,24,0.00,,---,0.00,VWS V14.01,2013-03-15 21:35:00,
2013-03-15 15:40:00,57.6,21.1,30.10,SE,125,4.0,11.0,24,0.00,,---,0.00,VWS V14.01,2013-03-15 21:40:00,
2013-03-15 15:45:00,57.2,20.8,30.10,West,278,3.0,15.0,24,0.00,,---,0.00,VWS V14.01,2013-03-15 21:45:00,
2013-03-15 15:50:00,57.6,20.1,30.10,NNW,340,1.0,15.0,23,0.00,,---,0.00,VWS V14.01,2013-03-15 21:50:00,
2013-03-15 15:55:00,58.1,21.5,30.09,ESE,114,2.0,15.0,24,0.00,,---,0.00,VWS V14.01,2013-03-15 21:55:00,
2013-03-15 16:00:00,57.6,20.1,30.09,SE,132,7.0,15.0,23,0.00,,---,0.00,VWS V14.01,2013-03-15 22:00:00,
2013-03-15 16:05:00,57.2,20.8,30.09,ESE,105,2.0,5.0,24,0.00,,---,0.00,VWS V14.01,2013-03-15 22:05:00,
2013-03-15 16:10:00,56.7,19.3,30.08,SSW,193,6.0,13.0,23,0.00,,---,0.00,VWS V14.01,2013-03-15 22:10:00,
2013-03-15 16:15:00,56.6,22.1,30.10,NNE,18,4.0,13.0,26,0.00,,---,0.00,VWS V14.01,2013-03-15 22:15:00,
2013-03-15 16:20:00,56.7,20.3,30.09,WSW,252,2.0,13.0,24,0.00,,---,0.00,VWS V14.01,2013-03-15 22:20:00,
2013-03-15 16:25:00,57.1,20.7,30.09,SSW,208,4.0,13.0,24,0.00,,---,0.00,VWS V14.01,2013-03-15 22:25:00,
2013-03-15 16:30:00,57.2,21.7,30.10,WSW,240,9.0,13.0,25,0.00,,---,0.00,VWS V14.01,2013-03-15 22:30:00,
2013-03-15 16:35:00,57.1,20.7,30.10,West,271,4.0,13.0,24,0.00,,---,0.00,VWS V14.01,2013-03-15 22:35:00,
2013-03-15 16:40:00,57.3,20.8,30.09,WSW,250,2.0,13.0,24,0.00,,---,0.00,VWS V14.01,2013-03-15 22:40:00,
2013-03-15 16:45:00,57.4,19.9,30.10,WSW,242,3.0,13.0,23,0.00,,---,0.00,VWS V14.01,2013-03-15 22:45:00,
2013-03-15 16:50:00,57.0,20.6,30.10,NNW,338,3.0,13.0,24,0.00,,---,0.00,VWS V14.01,2013-03-15 22:50:00,
2013-03-15 16:55:00,56.5,20.2,30.09,NNW,345,0.0,13.0,24,0.00,,---,0.00,VWS V14.01,2013-03-15 22:55:00,
2013-03-15 17:00:00,56.2,20.9,30.09,ESE,120,4.0,13.0,25,0.00,,---,0.00,VWS V14.01,2013-03-15 23:00:00,
2013-03-15 17:05:00,56.2,20.9,30.09,SW,233,7.0,7.0,25,0.00,,---,0.00,VWS V14.01,2013-03-15 23:05:00,
2013-03-15 17:10:00,56.0,20.7,30.09,NW,321,4.0,7.0,25,0.00,,---,0.00,VWS V14.01,2013-03-15 23:10:00,
2013-03-15 17:15:00,55.4,20.2,30.09,West,269,1.0,8.0,25,0.00,,---,0.00,VWS V14.01,2013-03-15 23:15:00,
2013-03-15 17:20:00,54.8,19.7,30.09,SW,226,1.0,8.0,25,0.00,,---,0.00,VWS V14.01,2013-03-15 23:20:00,
2013-03-15 17:25:00,54.7,19.6,30.08,SW,225,3.0,8.0,25,0.00,,---,0.00,VWS V14.01,2013-03-15 23:25:00,
2013-03-15 17:30:00,54.6,18.5,30.08,SSW,211,5.0,8.0,24,0.00,,---,0.00,VWS V14.01,2013-03-15 23:30:00,
2013-03-15 17:35:00,54.3,18.3,30.08,WSW,250,5.0,8.0,24,0.00,,---,0.00,VWS V14.01,2013-03-15 23:35:00,
2013-03-15 17:40:00,53.8,18.8,30.08,NNW,328,10.0,11.0,25,0.00,,---,0.00,VWS V14.01,2013-03-15 23:40:00,
2013-03-15 17:45:00,53.3,18.4,30.08,West,259,6.0,11.0,25,0.00,,---,0.00,VWS V14.01,2013-03-15 23:45:00,
2013-03-15 17:50:00,53.0,19.0,30.08,NNW,328,2.0,11.0,26,0.00,,---,0.00,VWS V14.01,2013-03-15 23:50:00,
2013-03-15 17:55:00,52.9,18.0,30.08,WSW,249,2.0,11.0,25,0.00,,---,0.00,VWS V14.01,2013-03-15 23:55:00,
2013-03-15 18:00:00,52.7,18.8,30.08,WSW,250,7.0,11.0,26,0.00,,---,0.00,VWS V14.01,2013-03-16 00:00:00,
2013-03-15 18:05:00,52.5,18.6,30.09,NE,34,5.0,5.0,26,0.00,,---,0.00,VWS V14.01,2013-03-16 00:05:00,
2013-03-15 18:10:00,52.2,19.2,30.08,SW,232,4.0,12.0,27,0.00,,---,0.00,VWS V14.01,2013-03-16 00:10:00,
2013-03-15 18:15:00,52.0,19.1,30.08,ESE,123,0.0,12.0,27,0.00,,---,0.00,VWS V14.01,2013-03-16 00:15:00,
2013-03-15 18:20:00,51.7,19.7,30.08,WSW,250,8.0,12.0,28,0.00,,---,0.00,VWS V14.01,2013-03-16 00:20:00,
2013-03-15 18:25:00,51.5,19.5,30.08,South,172,2.0,12.0,28,0.00,,---,0.00,VWS V14.01,2013-03-16 00:25:00,
2013-03-15 18:30:00,51.0,20.7,30.08,NNW,335,2.0,12.0,30,0.00,,---,0.00,VWS V14.01,2013-03-16 00:30:00,
2013-03-15 18:35:00,50.4,20.1,30.07,ESE,106,0.0,0.0,30,0.00,,---,0.00,VWS V14.01,2013-03-16 00:35:00,
2013-03-15 18:40:00,49.8,20.4,30.08,East,98,0.0,2.0,31,0.00,,---,0.00,VWS V14.01,2013-03-16 00:40:00,
2013-03-15 18:45:00,49.5,20.9,30.07,NNW,347,1.0,3.0,32,0.00,,---,0.00,VWS V14.01,2013-03-16 00:45:00,
2013-03-15 18:50:00,48.7,20.9,30.08,ESE,110,0.0,3.0,33,0.00,,---,0.00,VWS V14.01,2013-03-16 00:50:00,
2013-03-15 18:55:00,48.3,20.5,30.08,NW,311,2.0,3.0,33,0.00,,---,0.00,VWS V14.01,2013-03-16 00:55:00,
2013-03-15 19:00:00,47.9,20.9,30.08,NNW,340,3.0,5.0,34,0.00,,---,0.00,VWS V14.01,2013-03-16 01:00:00,
2013-03-15 19:05:00,47.8,20.8,30.09,ESE,108,0.0,0.0,34,0.00,,---,0.00,VWS V14.01,2013-03-16 01:05:00,
2013-03-15 19:10:00,48.0,20.3,30.09,NNW,343,1.0,2.0,33,0.00,,---,0.00,VWS V14.01,2013-03-16 01:10:00,
2013-03-15 19:15:00,47.8,20.1,30.09,NNW,340,0.0,2.0,33,0.00,,---,0.00,VWS V14.01,2013-03-16 01:15:00,
2013-03-15 19:20:00,47.2,21.0,30.08,West,278,0.0,6.0,35,0.00,,---,0.00,VWS V14.01,2013-03-16 01:20:00,
2013-03-15 19:25:00,47.4,21.1,30.09,ESE,118,0.0,6.0,35,0.00,,---,0.00,VWS V14.01,2013-03-16 01:25:00,
2013-03-15 19:30:00,47.3,21.7,30.10,NNW,342,0.0,6.0,36,0.00,,---,0.00,VWS V14.01,2013-03-16 01:30:00,
2013-03-15 19:35:00,46.8,20.6,30.10,ESE,105,1.0,1.0,35,0.00,,---,0.00,VWS V14.01,2013-03-16 01:35:00,
2013-03-15 19:40:00,47.1,20.9,30.10,SE,131,0.0,4.0,35,0.00,,---,0.00,VWS V14.01,2013-03-16 01:40:00,
2013-03-15 19:45:00,46.8,21.3,30.10,NNW,330,0.0,4.0,36,0.00,,---,0.00,VWS V14.01,2013-03-16 01:45:00,
2013-03-15 19:50:00,46.3,20.8,30.10,NW,323,1.0,4.0,36,0.00,,---,0.00,VWS V14.01,2013-03-16 01:50:00,
2013-03-15 19:55:00,46.4,20.9,30.10,WNW,284,2.0,5.0,36,0.00,,---,0.00,VWS V14.01,2013-03-16 01:55:00,
2013-03-15 20:00:00,46.6,20.4,30.10,WSW,248,0.0,5.0,35,0.00,,---,0.00,VWS V14.01,2013-03-16 02:00:00,
2013-03-15 20:05:00,47.2,20.3,30.10,ESE,117,3.0,5.0,34,0.00,,---,0.00,VWS V14.01,2013-03-16 02:05:00,
2013-03-15 20:10:00,47.4,20.5,30.10,WSW,250,1.0,5.0,34,0.00,,---,0.00,VWS V14.01,2013-03-16 02:10:00,
2013-03-15 20:15:00,47.3,20.4,30.10,NNW,331,1.0,5.0,34,0.00,,---,0.00,VWS V14.01,2013-03-16 02:15:00,
2013-03-15 20:20:00,46.8,19.9,30.10,ESE,110,0.0,5.0,34,0.00,,---,0.00,VWS V14.01,2013-03-16 02:20:00,
2013-03-15 20:25:00,46.4,19.6,30.09,West,277,0.0,5.0,34,0.00,,---,0.00,VWS V14.01,2013-03-16 02:25:00,
2013-03-15 20:30:00,46.4,19.6,30.09,WNW,300,1.0,5.0,34,0.00,,---,0.00,VWS V14.01,2013-03-16 02:30:00,
2013-03-15 20:35:00,46.9,20.0,30.09,SW,218,2.0,4.0,34,0.00,,---,0.00,VWS V14.01,2013-03-16 02:35:00,
2013-03-15 20:40:00,47.2,20.3,30.09,SW,226,1.0,6.0,34,0.00,,---,0.00,VWS V14.01,2013-03-16 02:40:00,
2013-03-15 20:45:00,46.6,20.4,30.09,NNW,338,0.0,6.0,35,0.00,,---,0.00,VWS V14.01,2013-03-16 02:45:00,
2013-03-15 20:50:00,46.4,19.6,30.09,NW,318,0.0,6.0,34,0.00,,---,0.00,VWS V14.01,2013-03-16 02:50:00,
2013-03-15 20:55:00,46.3,20.2,30.08,ESE,120,2.0,7.0,35,0.00,,---,0.00,VWS V14.01,2013-03-16 02:55:00,
2013-03-15 21:00:00,46.0,19.9,30.09,WNW,300,2.0,7.0,35,0.00,,---,0.00,VWS V14.01,2013-03-16 03:00:00,
2013-03-15 21:05:00,46.3,20.8,30.08,NNW,327,3.0,3.0,36,0.00,,---,0.00,VWS V14.01,2013-03-16 03:05:00,
2013-03-15 21:10:00,46.1,20.0,30.09,WSW,257,1.0,4.0,35,0.00,,---,0.00,VWS V14.01,2013-03-16 03:10:00,
2013-03-15 21:15:00,45.9,20.5,30.09,ESE,113,0.0,4.0,36,0.00,,---,0.00,VWS V14.01,2013-03-16 03:15:00,
2013-03-15 21:20:00,45.3,20.6,30.08,SE,128,1.0,4.0,37,0.00,,---,0.00,VWS V14.01,2013-03-16 03:20:00,
2013-03-15 21:25:00,45.0,22.7,30.09,SSW,203,0.0,4.0,41,0.00,,---,0.00,VWS V14.01,2013-03-16 03:25:00,
2013-03-15 21:30:00,45.1,21.6,30.09,NNW,333,0.0,6.0,39,0.00,,---,0.00,VWS V14.01,2013-03-16 03:30:00,
2013-03-15 21:35:00,45.1,21.0,30.08,ESE,114,0.0,2.0,38,0.00,,---,0.00,VWS V14.01,2013-03-16 03:35:00,
2013-03-15 21:40:00,45.0,22.1,30.09,West,264,0.0,3.0,40,0.00,,---,0.00,VWS V14.01,2013-03-16 03:40:00,
2013-03-15 21:45:00,44.5,21.7,30.08,East,89,0.0,3.0,40,0.00,,---,0.00,VWS V14.01,2013-03-16 03:45:00,
2013-03-15 21:50:00,44.0,22.4,30.08,NNW,338,0.0,3.0,42,0.00,,---,0.00,VWS V14.01,2013-03-16 03:50:00,
2013-03-15 21:55:00,43.6,23.1,30.08,NNW,344,0.0,3.0,44,0.00,,---,0.00,VWS V14.01,2013-03-16 03:55:00,
2013-03-15 22:00:00,43.2,23.3,30.08,NNW,343,0.0,3.0,45,0.00,,---,0.00,VWS V14.01,2013-03-16 04:00:00,
2013-03-15 22:05:00,43.3,22.9,30.08,SSW,205,2.0,2.0,44,0.00,,---,0.00,VWS V14.01,2013-03-16 04:05:00,
2013-03-15 22:10:00,43.7,22.1,30.07,SSW,203,0.0,5.0,42,0.00,,---,0.00,VWS V14.01,2013-03-16 04:10:00,
2013-03-15 22:15:00,44.2,22.0,30.08,ENE,75,1.0,5.0,41,0.00,,---,0.00,VWS V14.01,2013-03-16 04:15:00,
2013-03-15 22:20:00,44.4,21.6,30.08,SW,225,0.0,5.0,40,0.00,,---,0.00,VWS V14.01,2013-03-16 04:20:00,
2013-03-15 22:25:00,44.8,21.4,30.08,ESE,116,2.0,7.0,39,0.00,,---,0.00,VWS V14.01,2013-03-16 04:25:00,
2013-03-15 22:30:00,44.8,21.4,30.08,SSE,165,2.0,8.0,39,0.00,,---,0.00,VWS V14.01,2013-03-16 04:30:00,
2013-03-15 22:35:00,44.5,21.7,30.08,SSE,153,3.0,4.0,40,0.00,,---,0.00,VWS V14.01,2013-03-16 04:35:00,
2013-03-15 22:40:00,44.7,21.9,30.08,WSW,245,1.0,8.0,40,0.00,,---,0.00,VWS V14.01,2013-03-16 04:40:00,
2013-03-15 22:45:00,44.3,23.8,30.08,NW,311,2.0,9.0,44,0.00,,---,0.00,VWS V14.01,2013-03-16 04:45:00,
2013-03-15 22:50:00,44.1,24.1,30.08,SE,126,4.0,9.0,45,0.00,,---,0.00,VWS V14.01,2013-03-16 04:50:00,
2013-03-15 22:55:00,43.9,24.0,30.09,ENE,68,0.0,9.0,45,0.00,,---,0.00,VWS V14.01,2013-03-16 04:55:00,
2013-03-15 23:00:00,43.7,24.8,30.09,NNW,347,3.0,9.0,47,0.00,,---,0.00,VWS V14.01,2013-03-16 05:00:00,
2013-03-15 23:05:00,43.2,25.8,30.08,SE,134,0.0,4.0,50,0.00,,---,0.00,VWS V14.01,2013-03-16 05:05:00,
2013-03-15 23:10:00,42.6,26.2,30.08,East,98,0.0,5.0,52,0.00,,---,0.00,VWS V14.01,2013-03-16 05:10:00,
2013-03-15 23:15:00,41.9,26.5,30.08,SW,225,1.0,9.0,54,0.00,,---,0.00,VWS V14.01,2013-03-16 05:15:00,
2013-03-15 23:20:00,41.8,25.5,30.08,ESE,115,1.0,9.0,52,0.00,,---,0.00,VWS V14.01,2013-03-16 05:20:00,
2013-03-15 23:25:00,42.0,25.2,30.08,East,95,1.0,9.0,51,0.00,,---,0.00,VWS V14.01,2013-03-16 05:25:00,
2013-03-15 23:30:00,42.0,25.7,30.08,North,8,0.0,9.0,52,0.00,,---,0.00,VWS V14.01,2013-03-16 05:30:00,
2013-03-15 23:35:00,41.8,25.5,30.08,NNW,342,1.0,6.0,52,0.00,,---,0.00,VWS V14.01,2013-03-16 05:35:00,
2013-03-15 23:40:00,41.4,25.1,30.08,ESE,110,2.0,6.0,52,0.00,,---,0.00,VWS V14.01,2013-03-16 05:40:00,
2013-03-15 23:45:00,41.7,24.9,30.08,SE,131,2.0,6.0,51,0.00,,---,0.00,VWS V14.01,2013-03-16 05:45:00,
2013-03-15 23:50:00,42.1,25.3,30.07,NNW,335,0.0,6.0,51,0.00,,---,0.00,VWS V14.01,2013-03-16 05:50:00,
2013-03-15 23:55:00,41.9,25.1,30.07,SW,233,3.0,6.0,51,0.00,,---,0.00,VWS V14.01,2013-03-16 05:55:00,